Dewpoint
70 70 70 70 72 69 68 69 70 70 66 65 65 64 63 66 69 71 72 73 74 74 71 71 71 70 70 71 70 69 69 70 70 70 71 72 72 71 70 70 70 69 68
71 65 69 71 69 71 70 70 69 68 67 64 64 64 64 65 65 69 72 73 74 74 72 71 70 70 71 70 72 70 70 70 71 71 72 71 72 71 70 71 71 70 69
70 71 69 70 70 70 68 70 70 70 67 67 66 65 65 65 64 66 69 71 73 74 73 72 72 71 70 70 71 71 72 72 72 72 72 72 71 71 71 70 70 71 70
67 67 71 68 70 71 67 69 69 67 67 65 65 67 65 66 64 66 67 68 70 70 74 74 74 73 72 71 72 72 73 74 74 74 74 73 72 72 71 71 70 70 71
71 70 72 67 71 72 70 68 68 68 67 66 66 67 66 66 63 66 67 68 68 69 70 74 75 75 73 72 73 73 74 74 74 75 75 75 75 74 73 73 72 71 71
72 71 70 70 72 70 68 67 67 68 66 65 63 62 64 66 66 66 64 67 69 69 69 70 73 73 75 75 75 76 75 75 75 75 75 75 75 75 75 74 73 72 72
72 72 71 70 70 69 68 65 69 65 68 64 66 64 66 64 65 65 65 65 65 69 69 69 71 70 70 74 76 75 75 76 76 76 75 75 75 75 75 75 74 74 72
72 72 71 70 69 70 71 69 68 68 68 66 63 65 61 60 61 61 64 64 63 65 66 66 70 70 69 70 72 75 75 75 76 76 76 75 75 75 75 75 75 75 74
72 72 69 72 69 71 70 68 67 65 68 63 62 65 62 61 61 61 61 61 60 64 65 66 65 66 67 71 73 74 75 75 74 75 75 75 75 75 75 75 75 75 75
71 72 72 72 69 68 68 71 71 69 69 65 65 66 65 65 63 57 62 60 61 63 61 63 67 66 67 68 74 74 75 74 73 72 73 74 75 76 76 76 75 75 75
72 72 71 72 70 69 69 69 69 70 70 69 66 67 65 68 67 65 56 57 62 63 61 64 65 65 66 69 69 70 74 70 70 71 73 73 74 75 76 76 76 75 75
72 71 72 72 72 70 70 69 69 69 69 71 71 68 68 63 65 65 61 59 59 61 62 63 63 65 68 69 70 72 73 71 71 71 72 72 72 74 75 76 75 75 74
71 70 72 72 72 72 70 70 71 69 70 68 72 68 70 69 69 66 67 63 60 63 63 65 65 68 69 69 67 72 74 72 71 70 70 70 71 72 73 74 73 73 73
71 72 73 72 72 71 71 71 70 71 71 69 66 68 70 69 70 68 66 64 63 66 65 64 68 66 70 71 72 74 71 72 73 70 69 70 70 70 72 71 70 71 71
72 72 72 72 72 72 71 72 70 70 70 70 70 70 69 68 67 69 68 67 64 62 63 66 64 68 71 72 70 72 72 73 71 73 70 69 69 69 70 69 69 69 68
71 69 68 69 72 72 73 72 71 70 70 68 68 68 70 68 67 70 70 69 67 64 62 66 68 71 72 71 72 72 73 72 71 70 71 69 69 69 69 68 68 67 66
69 69 68 66 69 72 72 71 71 71 70 70 70 71 70 71 69 71 71 70 69 69 67 68 70 72 69 70 73 73 74 73 72 70 70 70 69 69 68 67 66 65 63
71 69 69 66 67 70 72 72 71 70 71 70 70 71 69 71 70 72 70 69 69 69 67 64 67 67 67 68 70 74 72 73 72 70 69 69 68 68 67 65 64 62 60
70 67 66 67 70 71 72 72 72 72 71 71 70 70 70 70 70 70 69 70 70 72 71 70 69 69 70 68 68 70 73 73 72 71 68 67 67 67 65 63 62 59 57
73 72 72 72 72 72 71 72 72 71 72 71 71 72 71 70 70 70 69 70 71 69 70 69 68 67 67 67 70 70 69 69 69 70 68 68 67 67 65 62 61 58 55
73 73 72 73 73 72 72 72 72 71 72 71 72 72 72 72 72 71 70 70 71 70 70 70 69 69 69 70 70 71 69 70 68 68 68 70 69 68 66 63 61 61 57
73 74 72 73 72 72 68 67 71 72 72 71 70 71 72 71 71 69 69 69 71 71 70 70 70 70 70 70 71 70 71 69 67 71 70 68 69 69 69 65 62 60 58
72 72 73 73 72 72 67 65 66 71 73 72 71 71 71 70 70 72 67 66 66 66 67 69 69 68 68 69 69 68 68 69 69 71 70 70 70 69 70 66 62 60 59
70 72 72 72 73 74 67 65 65 65 67 72 73 73 72 70 70 72 72 70 68 68 68 67 69 68 68 66 69 68 70 70 71 72 72 70 70 70 70 69 62 61 59
68 70 72 72 72 72 66 63 64 68 68 68 70 72 72 72 68 65 71 72 72 72 68 65 65 65 63 63 65 71 70 69 67 67 67 67 65 65 64 68 63 61 59
66 67 69 70 70 72 67 62 63 70 68 69 68 69 66 69 65 64 70 70 69 70 72 73 69 67 65 66 63 67 68 67 67 67 67 66 66 65 62 67 63 60 58
Lifted_Index
-2 -2 -3 -3 -3 -3 -3 -3 -4 -3 -2 -2 -2 -2 -2 -2 -2 -3 -3 -3 -4 -4 -3 -3 -3 -3 -3 -3 -3 -2 -2 -2 -2 -2 -3 -3 -3 -2 -2 -1 -1 -0 0
-2 -2 -3 -3 -3 -3 -3 -3 -3 -3 -2 -2 -2 -2 -2 -1 -2 -2 -3 -4 -4 -4 -3 -3 -3 -3 -3 -3 -3 -3 -3 -3 -3 -3 -3 -3 -3 -2 -2 -2 -1 -1 -0
-3 -3 -3 -3 -3 -3 -2 -2 -3 -2 -2 -2 -2 -2 -2 -1 -2 -2 -3 -4 -4 -4 -4 -3 -3 -3 -3 -3 -3 -3 -3 -4 -4 -4 -3 -3 -3 -2 -2 -2 -1 -1 -1
-3 -3 -3 -3 -3 -3 -2 -2 -2 -2 -2 -2 -2 -2 -2 -2 -2 -2 -3 -4 -4 -4 -4 -4 -4 -4 -4 -4 -4 -4 -4 -4 -4 -4 -4 -4 -3 -3 -2 -1 -1 -1 -1
-3 -3 -3 -3 -3 -3 -2 -2 -2 -2 -2 -2 -2 -1 -1 -2 -2 -2 -3 -3 -4 -4 -4 -4 -5 -5 -4 -4 -5 -5 -5 -5 -5 -5 -5 -5 -4 -4 -3 -2 -1 -1 -1
-4 -3 -3 -3 -3 -3 -2 -2 -2 -2 -2 -1 -1 -1 -1 -2 -2 -2 -2 -3 -4 -4 -4 -4 -5 -5 -5 -5 -5 -5 -5 -5 -5 -5 -5 -5 -5 -5 -4 -3 -2 -1 -1
-4 -3 -3 -3 -3 -3 -2 -3 -3 -2 -2 -2 -1 -2 -1 -1 -2 -2 -2 -3 -3 -4 -4 -4 -4 -5 -5 -5 -5 -5 -5 -5 -6 -6 -6 -6 -6 -5 -5 -4 -3 -3 -2
-4 -3 -3 -3 -2 -3 -3 -3 -3 -3 -2 -2 -1 -2 -2 -1 -1 -2 -2 -3 -3 -3 -3 -4 -5 -5 -5 -5 -5 -5 -5 -5 -6 -6 -6 -6 -6 -6 -6 -5 -5 -4 -3
-4 -4 -3 -3 -2 -3 -3 -3 -3 -3 -2 -2 -1 -2 -2 -2 -1 -1 -2 -2 -2 -3 -3 -4 -4 -5 -5 -6 -6 -5 -5 -5 -5 -5 -6 -6 -6 -6 -7 -6 -6 -5 -4
-4 -4 -3 -3 -3 -2 -3 -3 -3 -3 -3 -2 -2 -2 -3 -3 -3 -2 -2 -2 -2 -2 -3 -3 -4 -4 -5 -6 -6 -6 -6 -5 -5 -5 -5 -6 -6 -7 -7 -7 -6 -6 -5
-3 -3 -3 -3 -3 -2 -2 -3 -3 -4 -4 -4 -3 -3 -3 -3 -4 -3 -2 -2 -2 -2 -3 -3 -4 -4 -5 -6 -6 -6 -6 -6 -5 -5 -5 -5 -6 -7 -7 -7 -7 -7 -6
-3 -3 -3 -3 -3 -2 -2 -2 -3 -4 -4 -4 -4 -4 -4 -4 -4 -4 -3 -2 -2 -3 -3 -4 -4 -4 -5 -5 -6 -6 -6 -6 -5 -5 -5 -5 -5 -6 -7 -7 -7 -7 -7
-3 -3 -3 -3 -3 -3 -3 -3 -3 -3 -3 -3 -4 -4 -4 -4 -4 -5 -4 -3 -3 -3 -3 -4 -4 -5 -5 -6 -6 -6 -6 -6 -6 -5 -5 -5 -5 -5 -6 -7 -7 -7 -6
-3 -3 -3 -3 -3 -3 -3 -3 -3 -3 -3 -3 -3 -3 -4 -4 -5 -5 -5 -4 -4 -4 -4 -4 -4 -5 -6 -6 -6 -6 -7 -6 -6 -6 -5 -5 -4 -5 -6 -6 -6 -6 -6
-3 -3 -3 -3 -3 -3 -3 -3 -3 -3 -3 -3 -3 -3 -4 -4 -4 -5 -5 -4 -4 -4 -4 -5 -5 -6 -6 -6 -6 -7 -7 -7 -7 -6 -6 -5 -4 -5 -5 -6 -6 -5 -5
-3 -3 -3 -3 -3 -3 -3 -3 -3 -3 -3 -2 -2 -3 -3 -4 -4 -4 -5 -4 -4 -4 -5 -5 -6 -6 -6 -6 -6 -7 -7 -7 -7 -6 -6 -5 -4 -4 -5 -6 -5 -5 -5
-3 -2 -2 -2 -3 -3 -3 -3 -3 -3 -3 -2 -2 -3 -3 -4 -4 -4 -4 -4 -4 -5 -5 -5 -6 -6 -6 -6 -6 -7 -7 -7 -6 -6 -6 -5 -4 -4 -5 -5 -5 -5 -5
-3 -3 -2 -2 -3 -3 -3 -3 -3 -3 -3 -3 -3 -3 -3 -4 -4 -4 -4 -4 -4 -5 -5 -5 -5 -5 -5 -5 -5 -6 -6 -6 -6 -6 -5 -5 -4 -4 -5 -5 -5 -5 -5
-4 -4 -3 -3 -3 -3 -4 -4 -4 -4 -4 -3 -3 -3 -3 -3 -4 -4 -4 -4 -4 -5 -5 -5 -4 -5 -5 -5 -5 -5 -6 -6 -5 -5 -4 -4 -4 -4 -4 -4 -5 -5 -5
-5 -5 -4 -4 -4 -4 -5 -4 -4 -4 -4 -4 -4 -4 -4 -3 -4 -4 -3 -3 -4 -4 -4 -5 -5 -5 -5 -5 -5 -5 -5 -5 -5 -4 -3 -3 -3 -3 -3 -4 -4 -4 -5
-6 -6 -5 -5 -5 -5 -5 -5 -5 -4 -4 -4 -4 -4 -4 -4 -4 -4 -4 -4 -4 -4 -4 -4 -5 -5 -5 -5 -5 -5 -4 -4 -4 -3 -3 -3 -3 -3 -3 -3 -3 -4 -4
-6 -6 -6 -6 -6 -6 -5 -5 -5 -5 -4 -4 -4 -4 -4 -4 -4 -4 -4 -4 -4 -4 -4 -4 -4 -4 -4 -4 -4 -4 -3 -3 -3 -3 -3 -3 -3 -3 -3 -3 -3 -3 -4
-6 -6 -6 -6 -6 -6 -6 -5 -5 -5 -4 -4 -4 -4 -4 -4 -4 -4 -4 -4 -4 -3 -3 -3 -3 -3 -3 -2 -2 -2 -2 -3 -3 -3 -3 -3 -3 -3 -3 -3 -3 -3 -4
-5 -5 -5 -5 -6 -6 -6 -5 -5 -4 -4 -4 -4 -4 -4 -4 -4 -4 -4 -4 -4 -4 -3 -3 -3 -3 -2 -2 -2 -2 -2 -3 -3 -3 -3 -3 -3 -3 -3 -3 -3 -3 -3
-4 -4 -4 -5 -5 -5 -5 -5 -5 -5 -4 -4 -4 -4 -4 -4 -4 -4 -4 -4 -4 -4 -4 -4 -4 -4 -4 -3 -3 -3 -3 -3 -3 -3 -3 -2 -2 -2 -2 -2 -2 -2 -3
-3 -3 -4 -4 -5 -5 -5 -6 -5 -5 -5 -4 -4 -3 -4 -4 -4 -4 -4 -4 -4 -4 -4 -4 -4 -4 -4 -4 -4 -3 -3 -3 -3 -3 -2 -2 -2 -1 -1 -1 -2 -2 -2